Location: Prairie State College
(41.5244°N, 87.6382°W)
Time: 17:14:06
(UTC-05:00)

ISS - All Passes

Search period start: 27 April 2015 00:00
Search period end: 07 May 2015 00:00
Orbit: 395 x 402 km, 51.6° (Epoch: 27 April)

Date Brightness Start Highest point End Pass type
(mag) Time Alt. Az. Time Alt. Az. Time Alt. Az.
27 Apr - 10:35:58 10° S 10:38:08 17° SE 10:40:23 10° E daylight
27 Apr - 12:11:03 10° WSW 12:14:14 55° NNW 12:17:27 10° NE daylight
27 Apr - 13:48:55 10° NW 13:51:08 17° NNW 13:53:22 10° NNE daylight
27 Apr - 15:26:28 10° NNW 15:28:27 15° N 15:30:26 10° NE daylight
27 Apr - 17:02:25 10° NW 17:05:29 37° NNE 17:08:34 10° E daylight
27 Apr - 18:38:56 10° WNW 18:41:47 28° SW 18:44:36 10° SSE daylight
28 Apr - 11:16:49 10° SW 11:20:03 77° SE 11:23:19 10° ENE daylight
28 Apr - 12:54:06 10° WNW 12:56:43 21° NNW 12:59:18 10° NE daylight
28 Apr - 14:32:08 10° NNW 14:33:57 14° N 14:35:46 10° NE daylight
28 Apr - 16:08:24 10° NW 16:11:09 24° NNE 16:13:55 10° E daylight
28 Apr - 17:44:30 10° WNW 17:47:42 57° SW 17:50:54 10° SE daylight
29 Apr - 10:22:54 10° SSW 10:25:55 37° SE 10:28:58 10° ENE daylight
29 Apr - 11:59:22 10° W 12:02:18 30° NNW 12:05:15 10° NE daylight
29 Apr - 13:37:32 10° NW 13:39:25 14° N 13:41:19 10° NNE daylight
29 Apr - 15:14:20 10° NNW 15:16:42 18° NNE 15:19:05 10° ENE daylight
29 Apr - 16:50:15 10° NW 16:53:30 72° NNE 16:56:45 10° ESE daylight
29 Apr - 18:27:53 10° WSW 18:29:30 13° SW 18:31:00 10° SSW daylight
30 Apr - 09:29:29 10° S 09:31:49 19° SE 09:34:12 10° E daylight
30 Apr - 11:04:46 10° WSW 11:07:56 50° NNW 11:11:08 10° NE daylight
30 Apr - 12:42:41 10° NW 12:44:52 16° NNW 12:47:01 10° NNE daylight
30 Apr - 14:20:09 10° NNW 14:22:10 15° N 14:24:12 10° NE daylight
30 Apr - 15:56:04 10° NW 15:59:10 39° NNE 16:02:16 10° E daylight
30 Apr - 17:32:39 10° WNW 17:35:25 25° SW 17:38:08 10° SSE daylight
01 May - 10:10:23 10° SW 10:13:37 85° SE 10:16:53 10° NE daylight
01 May - 11:47:45 10° WNW 11:50:18 20° NNW 11:52:51 10° NNE daylight
01 May - 13:25:44 10° NNW 13:27:33 14° N 13:29:22 10° NE daylight
01 May - 15:01:56 10° NW 15:04:43 26° NNE 15:07:32 10° E daylight
01 May - 16:38:03 10° WNW 16:41:14 51° SW 16:44:23 10° SE daylight
02 May - 09:16:18 10° SSW 09:19:21 40° SE 09:22:26 10° ENE daylight
02 May - 10:52:52 10° W 10:55:46 29° NNW 10:58:40 10° NE daylight
02 May - 12:31:02 10° NW 12:32:54 14° N 12:34:45 10° NNE daylight
02 May - 14:07:45 10° NNW 14:10:10 19° NNE 14:12:36 10° ENE daylight
02 May - 15:43:39 10° NW 15:46:55 78° NNE 15:50:10 10° ESE daylight
02 May - 17:21:35 10° WSW 17:22:53 12° SW 17:24:02 10° SSW daylight
03 May - 08:22:40 10° S 08:25:07 20° SE 08:27:37 10° E daylight
03 May - 09:58:07 10° WSW 10:01:16 46° NNW 10:04:25 10° NE daylight
03 May - 11:36:06 10° NW 11:38:13 16° N 11:40:19 10° NNE daylight
03 May - 13:13:27 10° NNW 13:15:30 15° N 13:17:34 10° NE daylight
03 May - 14:49:22 10° NW 14:52:29 42° NNE 14:55:36 10° ESE daylight
03 May - 16:26:01 10° W 16:28:41 23° SW 16:31:18 10° S daylight
04 May - 07:30:35 10° SE 07:30:55 10° SE 07:31:22 10° ESE daylight
04 May - 09:03:35 10° SW 09:06:49 88° NW 09:10:05 10° NE daylight
04 May - 10:41:02 10° WNW 10:43:32 20° NNW 10:46:00 10° NNE daylight
04 May - 12:18:57 10° NNW 12:20:46 14° N 12:22:36 10° NE daylight
04 May - 13:55:05 10° NW 13:57:55 27° NNE 14:00:46 10° E daylight
04 May - 15:31:14 10° WNW 15:34:23 46° SW 15:37:30 10° SE daylight
05 May - 08:09:20 10° SSW 08:12:25 44° SE 08:15:32 10° ENE daylight
05 May - 09:46:01 10° W 09:48:51 27° NNW 09:51:42 10° NE daylight
05 May - 11:24:11 10° NW 11:26:00 14° N 11:27:49 10° NNE daylight
05 May - 13:00:47 10° NNW 13:03:15 19° NNE 13:05:43 10° ENE daylight
05 May - 14:36:42 10° NW 14:39:58 85° NE 14:43:13 10° SE daylight
05 May - 16:15:02 10° WSW 16:15:53 11° SW 16:16:36 10° SW daylight
06 May - 07:15:30 10° S 07:18:03 22° SE 07:20:40 10° E daylight
06 May - 08:51:06 10° WSW 08:54:13 43° NNW 08:57:21 10° NE daylight
06 May - 10:29:07 10° NW 10:31:11 16° N 10:33:15 10° NNE daylight
06 May - 12:06:23 10° NNW 12:08:28 16° N 12:10:34 10° NE daylight
06 May - 13:42:17 10° NW 13:45:25 45° NNE 13:48:33 10° ESE daylight
06 May - 15:19:01 10° W 15:21:35 21° SW 15:24:05 10° S daylight
